SCP
0 0 0 0 0 0 0 0 0 0 0 0 0 0 0 0 0 0 0 0 0 0 0 0 0 0 0 0 0 0 0 0 0 0 0 0 0 0 0 0 0 0 0 0
0 0 0 0 0 0 0 0 0 0 0 0 0 0 0 0 0 0 0 0 0 0 0 0 0 0 0 0 0 0 0 0 0 0 0 0 0 0 0 0 0 0 0 0
0 0 0 0 0 0 0 0 0 0 0 0 0 0 0 0 0 0 0 0 0 0 0 0 0 0 0 0 0 0 0 0 0 0 0 0 0 0 0 0 0 0 0 0
0 0 0 0 0 0 0 0 0 0 0 0 0 0 0 0 0 0 0 0 0 0 0 0 0 0 0 0 0 0 0 0 0 0 0 0 0 0 0 0 0 0 0 0
0 0 0 0 0 0 0 0 0 0 0 0 0 0 0 0 0 0 0 0 0 0 0 0 0 0 0 0 0 0 0 0 0 0 0 0 0 0 0 0 0 0 0 0
0 0 0 0 0 0 0 0 0 0 0 0 0 0 0 0 0 0 0 0 0 0 0 0 0 0 0 0 0 0 0 0 0 0 0 0 0 0 0 0 0 0 0 0
0 0 0 0 0 0 0 0 0 0 0 0 0 0 0 0 0 0 0 0 0 0 0 0 0 0 0 0 0 0 0 0 0 0 0 0 0 0 0 0 0 0 0 0
0 0 0 0 0 0 0 0 0 0 0 0 0 0 0 0 0 0 0 0 0 0 0 0 0 0 0 0 0 0 0 0 0 0 0 0 0 0 0 0 0 0 0 0
0 0 0 0 0 0 0 0 0 0 0 0 0 0 0 0 0 0 0 0 0 0 0 0 0 0 0 0 0 0 0 0 0 0 0 0 0 0 0 0 0 0 0 0
0 0 0 0 0 0 0 0 0 0 0 0 0 0 0 0 0 0 0 0 0 0 0 0 0 0 0 0 0 0 0 0 0 0 0 0 0 0 0 0 0 0 0 0
0 0 0 0 0 0 0 0 0 0 0 0 0 0 0 0 0 0 0 0 0 0 0 0 0 0 0 0 0 0 0 0 0 0 0 0 0 0 0 0 0 0 0 0
0 0 0 0 0 0 0 0 0 0 0 0 0 0 0 0 0 0 0 0 0 0 0 0 0 0 0 0 0 0 0 0 0 0 0 0 0 0 0 0 0 0 0 0
0 0 0 0 0 0 0 0 0 0 0 0 0 0 0 0 0 0 0 0 0 0 0 0 0 0 0 0 0 0 0 0 0 0 0 0 0 0 0 0 0 0 0 0
0 0 0 0 0 0 0 0 0 0 0 0 0 0 0 0 0 0 0 0 0 0 0 0 0 0 0 0 0 0 0 0 0 0 0 0 0 0 0 0 0 0 0 0
0 0 0 0 0 0 0 0 0 0 0 0 0 0 0 0 0 0 0 0 0 0 0 0 0 0 0 0 0 0 0 0 0 0 0 0 0 0 0 0 0 0 0 0
0 0 0 0 0 0 0 0 0 0 0 0 0 0 0 0 0 0 0 0 0 0 0 0 0 0 0 0 0 0 0 0 0 0 0 0 0 0 0 0 0 0 0 0
0 0 0 0 0 0 0 0 0 0 0 0 0 0 0 0 0 0 0 0 0 0 0 0 0 0 0 0 0 0 0 0 0 0 0 0 0 0 0 0 0 0 0 0
0 0 0 0 0 0 0 0 0 0 0 0 0 0 0 0 0 0 0 0 0 0 0 0 0 0 0 0 0 0 0 0 0 0 0 0 0 0 0 0 0 0 0 0
0 0 0 0 0 0 0 0 0 0 0 0 0 0 0 0 0 0 0 0 0 0 0 0 0 0 0 0 0 0 0 0 0 0 0 0 0 0 0 0 0 0 0 0
0 0 0 0 0 0 0 0 0 0 0 0 0 0 0 0 0 0 0 0 0 0 0 0 0 0 0 0 0 0 0 0 0 0 0 0 0 0 0 0 0 0 0 0
0 0 0 0 0 0 0 0 0 0 0 0 0 0 0 0 0 0 0 0 0 0 0 0 0 0 0 0 0 0 0 0 0 0 0 0 0 0 0 0 0 0 0 0
0 0 0 0 0 0 0 0 0 0 0 0 0 0 0 0 0 0 0 0 0 0 0 0 0 0 0 0 0 0 0 0 0 0 0 0 0 0 0 0 0 0 0 0
0 0 0 0 0 0 0 0 0 0 0 0 0 0 0 0 0 0 0 0 0 0 0 0 -0 -0 -0 -0 0 0 0 0 0 0 0 0 0 0 0 0 0 0 0 0
0 0 0 0 0 0 0 0 0 0 0 0 0 0 0 0 0 0 0 0 0 0 0 0 -0 -0 -0 -0 0 0 0 0 0 0 0 0 0 0 0 0 0 0 0 0
0 0 0 0 0 0 0 0 0 0 0 0 0 0 0 0 0 0 0 0 0 0 0 0 -0 -0 -0 -0 0 0 0 0 0 0 0 0 0 0 0 0 0 0 0 0
0 0 0 0 0 0 0 0 0 0 0 0 0 0 0 0 0 0 0 0 0 0 0 0 -0 -0 -0 -0 0 0 0 0 0 0 0 0 0 0 0 0 0 0 0 0
0 0 0 0 0 0 0 0 0 0 0 0 0 0 0 0 0 0 0 0 0 0 0 0 -0 -0 -0 -0 -0 -0 -0 0 0 0 0 0 0 0 0 0 0 0 0 0
Wind_Speed
4 4 2 2 5 3 2 5 6 6 9 11 13 13 14 13 12 11 10 10 9 7 6 6 5 5 5 5 4 5 5 5 5 4 5 6 6 6 6 7 8 7 7 7
3 4 3 4 4 2 0 2 4 6 3 6 11 11 12 13 13 12 11 11 9 9 8 7 6 6 5 5 4 4 5 4 4 5 5 5 5 6 6 6 6 7 7 7
3 5 3 3 3 1 0 1 5 6 7 13 13 14 15 14 13 12 11 11 10 9 8 6 6 6 6 5 4 4 4 4 4 4 5 4 6 6 5 5 6 6 6 6
1 3 1 5 2 1 3 2 2 6 12 14 12 10 8 10 12 12 11 11 9 8 8 6 5 5 5 4 4 4 4 4 4 5 5 5 5 5 4 4 5 4 5 5
1 0 4 3 1 2 3 1 3 11 14 11 13 9 5 6 8 9 9 9 8 8 7 6 6 5 5 4 4 5 5 5 4 5 5 5 5 4 3 3 4 3 3 4
2 2 4 5 2 3 5 1 4 12 15 15 12 7 6 9 10 10 10 9 8 8 7 6 5 5 5 5 5 5 4 4 4 5 5 5 4 3 2 3 3 3 3 3
2 2 5 5 3 1 2 7 9 11 15 13 6 6 11 14 11 11 10 10 9 8 7 6 6 6 5 5 4 4 5 5 5 4 4 4 3 2 3 3 4 4 4 3
2 2 6 4 1 2 4 5 10 10 10 9 10 13 15 14 13 12 10 9 9 8 6 5 6 7 6 5 4 4 5 5 4 3 3 3 3 3 3 4 4 3 3 3
3 5 4 2 1 1 6 10 7 9 10 14 14 14 15 13 12 11 10 8 7 8 7 5 6 7 6 4 4 5 4 4 3 4 4 3 3 3 3 3 3 2 2 2
0 2 1 3 4 5 8 9 10 13 14 14 15 15 15 13 11 10 8 8 7 8 8 6 5 6 5 5 5 5 4 3 3 4 4 4 4 3 3 3 3 3 3 2
0 1 4 4 5 10 12 13 14 12 12 14 17 16 14 12 11 9 8 7 7 8 7 6 5 5 4 5 5 5 4 3 3 4 4 4 4 3 3 1 2 4 3 3
5 5 3 3 6 13 14 13 14 15 13 12 13 14 12 11 9 8 9 7 8 7 7 6 6 5 4 5 5 5 3 3 3 3 3 3 4 3 5 3 4 5 5 4
4 4 4 6 8 11 12 13 14 14 15 13 11 12 11 9 8 9 9 9 8 7 7 6 6 5 4 5 5 5 4 3 2 2 3 3 3 3 1 3 3 2 2 2
7 8 7 7 8 12 15 14 14 13 13 13 11 11 11 9 9 10 9 8 8 7 7 6 6 5 4 4 4 4 3 3 3 2 3 3 3 3 3 2 0 2 2 3
4 6 9 10 12 14 15 15 15 13 12 11 11 11 11 11 10 9 8 8 8 7 7 6 6 5 4 4 4 4 3 2 2 2 2 3 3 3 3 3 2 2 2 3
7 11 14 15 16 15 16 16 15 14 13 12 11 11 11 10 10 9 8 8 8 8 7 6 6 5 5 4 4 3 2 4 4 3 2 2 2 2 2 3 3 2 3 3
12 12 15 15 15 15 15 14 14 13 13 13 12 11 11 10 9 8 8 8 8 7 7 6 6 5 5 5 4 3 2 2 3 2 2 3 3 3 3 3 3 3 4 4
11 12 14 16 16 15 14 14 14 13 13 13 13 12 11 11 10 9 8 8 7 6 5 6 6 5 4 4 4 3 2 2 2 2 2 2 3 3 3 3 4 4 3 3
11 12 13 14 14 14 14 13 13 13 12 13 13 12 11 10 9 8 8 8 8 6 5 6 8 6 4 4 4 2 2 2 2 2 2 3 3 2 3 3 3 4 4 3
12 14 15 15 14 14 14 13 13 12 12 12 12 11 10 10 9 9 8 7 6 6 6 6 6 5 4 4 4 2 2 3 4 3 3 3 3 3 3 3 4 4 4 4
14 15 16 16 15 14 15 15 14 13 13 13 12 12 11 10 10 9 8 6 6 7 7 9 6 4 4 3 3 2 2 3 4 4 4 4 4 4 3 3 4 4 4 4
13 14 15 15 15 14 13 13 13 14 13 12 12 11 11 10 10 8 7 6 6 9 7 5 4 6 6 5 2 2 2 3 4 4 4 4 4 4 4 4 4 4 4 4
12 12 14 15 15 14 13 12 13 14 13 13 13 12 12 9 8 8 7 5 6 10 7 6 7 9 9 5 3 3 2 3 4 4 5 5 5 5 5 5 5 5 4 5
11 12 13 13 13 14 13 12 12 11 12 11 11 12 11 8 6 6 6 9 11 12 7 8 11 11 9 4 3 3 3 3 3 4 5 5 5 5 5 5 5 5 5 6
11 12 12 14 14 12 12 11 11 10 11 9 10 11 10 8 7 6 6 9 12 12 7 9 13 12 7 4 4 4 4 4 4 4 4 5 5 5 5 5 5 5 5 5
11 11 12 12 11 10 10 10 9 9 9 8 8 8 8 7 8 7 7 9 12 12 8 6 7 8 6 5 5 5 5 4 4 4 5 5 6 5 5 5 7 6 5 6
9 8 8 8 8 9 9 9 9 9 9 9 9 8 8 8 7 8 9 8 8 8 7 6 6 7 6 6 6 6 5 5 5 5 5 5 5 5 6 7 6 6 5 5
Wind_Direction
239 252 235 278 297 291 222 189 184 200 178 184 173 161 155 150 146 145 143 142 140 135 127 123 118 113 109 105 97 93 85 80 78 77 77 78 76 72 71 74 78 74 70 61
323 315 332 317 319 301 308 140 142 131 160 152 142 139 149 154 156 156 153 149 144 138 136 134 132 128 118 115 110 104 96 93 87 83 82 82 82 79 78 74 73 74 70 67
301 315 7 326 309 324 49 160 157 174 169 141 145 158 163 163 163 160 155 148 144 142 140 137 137 130 124 125 121 113 108 106 99 94 93 91 94 84 82 79 80 77 74 73
298 7 281 251 264 96 91 19 124 126 142 152 151 147 148 155 157 155 152 147 145 142 139 134 128 124 122 121 121 120 116 113 109 102 95 88 85 83 82 81 85 85 80 77
133 253 278 289 296 136 122 35 124 132 136 128 119 105 113 143 148 149 146 141 138 138 134 131 129 127 119 115 108 106 107 110 110 106 102 96 93 90 87 88 84 88 91 84
143 169 241 251 259 139 107 156 159 143 144 144 139 149 171 154 139 133 131 132 132 130 126 130 135 128 115 112 109 114 120 118 114 114 112 110 108 94 82 94 98 96 85 78
176 215 258 260 271 160 182 216 161 152 151 154 165 160 143 140 135 133 133 134 133 131 132 140 138 124 118 115 117 123 114 107 103 107 114 114 99 86 94 93 89 86 81 63
150 202 253 296 347 185 203 132 136 141 147 137 120 119 129 134 137 137 134 134 135 133 132 132 126 119 115 116 119 106 100 98 96 101 110 106 95 83 88 98 95 93 81 52
193 220 251 329 131 143 126 125 128 134 134 130 126 131 132 134 136 136 136 136 133 132 125 120 122 123 126 134 123 106 95 93 91 87 74 81 93 97 85 88 100 110 107 87
328 283 353 57 79 87 110 118 123 130 132 133 131 134 133 135 136 136 135 134 131 129 128 128 130 131 138 138 123 114 111 102 94 88 74 66 69 84 94 97 106 114 123 123
161 219 57 53 103 113 106 110 115 119 126 132 133 135 136 136 137 137 134 130 130 133 136 138 135 136 140 135 124 119 119 111 98 97 101 86 69 64 89 81 160 146 154 154
212 203 154 164 143 127 121 123 126 124 120 127 132 133 133 134 134 133 132 129 131 134 138 139 138 138 139 136 129 126 122 124 122 122 118 115 106 66 42 68 81 109 141 145
184 154 132 130 130 122 122 127 129 129 131 130 129 132 131 130 131 130 132 135 140 142 140 140 139 140 144 140 134 135 146 150 140 143 147 150 145 134 105 13 28 53 119 148
133 118 118 127 129 123 124 125 124 122 126 129 131 132 130 128 132 136 141 146 143 139 141 143 144 156 164 149 141 145 153 162 161 172 171 170 169 170 165 164 219 308 304 267
140 133 137 128 122 123 126 128 129 131 132 133 137 138 138 138 142 144 145 143 137 138 144 147 152 169 169 149 147 156 159 173 177 176 172 174 174 170 178 186 202 236 287 303
119 119 127 131 133 134 137 139 139 143 144 142 144 145 145 143 143 143 145 144 143 150 156 155 164 178 170 160 159 162 180 186 168 160 163 171 178 180 187 195 206 217 233 248
137 141 144 144 145 145 147 147 147 147 147 147 149 146 143 140 141 145 149 149 151 157 161 164 176 183 173 164 163 168 179 191 181 156 180 188 187 191 192 191 199 211 231 235
162 159 158 154 152 150 150 149 149 149 151 151 148 146 147 149 153 157 156 151 148 154 169 174 175 175 171 170 169 172 176 185 188 193 196 192 191 193 191 195 202 208 228 244
156 155 153 152 151 150 151 152 152 152 152 152 151 152 153 154 156 156 152 151 155 166 188 183 171 166 177 190 174 165 175 189 194 199 194 190 190 201 195 196 203 206 207 212
157 155 154 152 151 151 152 153 153 154 155 153 151 151 153 158 158 156 154 162 177 183 185 177 167 168 181 193 178 174 190 196 191 193 193 192 202 213 213 207 202 202 204 208
157 157 156 155 155 155 155 155 156 157 157 157 158 161 162 162 162 158 158 174 200 184 174 173 173 182 191 202 200 194 195 200 202 200 197 201 209 218 220 214 204 202 203 208
158 158 157 155 154 155 156 156 156 157 158 161 161 161 160 164 166 166 174 182 189 180 172 178 185 194 203 207 203 208 214 214 212 210 206 204 204 211 214 211 209 210 209 209
156 157 156 156 156 155 154 157 160 161 163 166 166 166 168 170 171 172 185 196 180 181 177 188 198 204 209 204 206 218 237 231 217 215 212 207 205 205 208 211 211 210 209 213
154 154 153 151 148 152 159 164 162 164 165 166 168 169 167 168 177 185 180 181 183 182 187 197 202 207 204 202 208 222 242 243 228 220 212 206 206 207 209 211 212 213 213 215
155 151 151 153 158 164 164 161 158 161 164 167 171 173 173 174 177 184 178 180 186 184 192 201 205 208 203 207 213 224 235 236 231 220 210 207 208 209 213 213 212 213 213 216
157 159 163 166 165 162 162 163 166 169 169 171 175 179 178 178 178 177 179 185 187 189 192 195 200 203 206 213 221 226 233 245 241 228 221 216 214 212 214 218 218 213 213 215
152 153 153 154 158 162 164 167 170 174 175 175 177 181 181 180 180 182 183 185 186 192 195 195 196 199 207 215 223 229 231 234 233 227 222 218 215 215 216 218 216 214 213 214